Location: Calais Saint-Pierre
(50.9509°N, 1.8522°E)
Time: 10:41:07
(UTC+00:00)

CZ-2C R/B - Pass Details

Date: 15 May 2026
Orbit: 630 x 690 km, 98.1° (Epoch: 6 June)

Event Time Altitude Azimuth Distance (km) Brightness Sun altitude
Rises 22:26:36 0° 20° (NNE) 2,961 7.8 -17.7°
Reaches altitude 10° 22:28:56 10° 28° (NNE) 2,055 6.8 -17.8°
Maximum altitude 22:33:08 39° 98° (E) 987 4.3 -18.0°
Enters shadow 22:34:17 33° 132° (SE) 1,106 4.4 -18.1°
